Dewpoint
52 52 52 53 54 55 55 54 55 56 58 59 60 59 60 60 58 54 51 51 53 57 57 57 58 56 50 50 44 40 37 35 34 30 33 29 37 38 37 35 34 33 37 41 51
52 52 51 51 52 53 54 55 54 55 56 58 58 59 59 59 53 51 53 56 57 57 54 57 54 51 48 48 44 40 39 37 37 33 31 32 38 39 37 36 34 33 36 47 50
51 51 51 52 52 52 53 54 55 55 55 56 57 58 58 55 49 47 56 59 59 56 53 58 58 51 47 45 43 41 39 39 39 37 35 37 40 40 36 37 35 34 35 36 45
51 51 51 52 52 52 52 53 54 55 55 56 57 57 57 49 39 44 53 56 58 54 51 54 56 49 47 44 42 40 40 40 41 41 41 40 41 39 37 38 37 37 36 35 34
52 51 52 51 52 52 52 52 53 54 55 55 55 56 53 48 44 45 50 49 49 53 50 52 52 47 46 45 43 41 42 43 42 43 43 43 41 40 37 37 37 35 35 33 32
53 52 52 52 52 53 53 53 53 54 55 55 55 55 49 42 44 45 45 44 44 51 51 52 52 46 46 44 44 44 43 42 44 43 40 38 40 37 40 36 34 33 32 31 32
53 53 54 53 53 52 52 53 53 53 55 55 55 52 47 42 45 45 46 45 44 50 50 52 54 45 46 44 45 44 42 42 41 40 40 39 36 35 38 34 33 32 30 38 42
54 54 54 53 53 53 53 53 54 55 55 54 52 49 42 47 47 45 44 44 46 50 52 52 55 51 45 44 41 42 39 40 41 36 36 35 34 33 32 34 32 30 36 40 42
53 54 54 54 53 54 55 55 54 54 54 52 50 47 40 48 46 45 43 42 46 52 53 51 55 51 46 41 38 38 39 37 38 37 37 34 32 34 31 31 29 30 37 39 40
53 55 55 53 53 53 55 56 54 53 51 50 47 42 43 41 45 46 46 43 45 50 49 50 52 48 46 43 39 34 36 33 33 33 33 32 31 31 31 31 30 31 37 39 40
54 55 55 54 53 54 54 53 47 45 45 39 40 39 41 42 45 45 45 42 43 48 41 47 45 43 43 44 40 35 34 34 36 33 30 30 29 30 31 31 30 33 37 38 39
54 55 55 54 54 54 54 46 42 42 38 42 42 41 42 45 42 43 43 39 42 39 40 43 43 45 44 44 39 36 34 33 34 33 30 31 30 31 31 31 29 33 37 38 39
54 55 54 52 54 54 51 47 49 47 38 40 40 41 43 42 40 42 41 40 41 34 38 39 43 44 43 43 42 37 35 34 35 33 31 30 29 29 29 29 32 35 38 38 39
55 55 54 53 52 52 49 52 50 47 33 35 38 39 42 43 39 43 42 41 41 33 35 42 45 43 43 41 42 40 35 36 33 34 31 29 25 28 28 27 32 35 37 38 40
55 54 54 53 51 49 50 52 50 45 22 36 37 42 42 37 39 42 43 41 39 34 37 41 43 42 42 42 42 40 40 38 35 31 26 26 26 27 25 25 30 33 36 39 41
55 54 54 53 53 53 53 52 48 32 22 35 38 38 38 39 39 42 40 43 44 36 35 43 45 46 43 43 42 34 35 35 30 27 25 26 26 26 25 24 29 32 34 38 40
55 54 53 53 49 54 52 46 32 27 35 34 35 37 34 35 36 38 37 37 38 33 32 41 43 45 48 38 37 35 38 34 31 26 25 25 25 26 27 25 29 32 33 38 40
55 54 52 51 54 52 49 38 28 32 30 35 35 35 32 34 37 37 36 34 41 37 32 36 36 38 43 41 37 39 38 31 25 24 24 26 24 24 26 30 30 33 33 39 40
54 48 50 51 54 52 41 31 31 34 33 34 34 30 31 33 36 36 35 33 37 40 30 32 34 34 37 35 38 35 36 31 27 27 26 28 28 29 29 30 30 32 35 39 39
48 47 47 52 52 47 36 34 36 39 37 33 28 31 28 32 35 34 35 35 38 40 37 36 28 32 25 31 27 35 32 32 27 24 23 26 24 27 25 27 31 31 34 38 39
48 41 50 54 51 44 34 35 39 43 36 32 34 35 31 33 35 35 33 41 42 39 36 30 29 29 25 26 25 29 33 29 28 27 24 21 23 26 26 26 31 31 34 37 38
42 40 53 53 42 42 38 39 42 39 41 39 38 38 36 33 33 35 36 38 43 40 32 30 29 26 25 31 29 26 28 28 25 23 23 23 24 26 27 28 32 32 34 36 38
40 45 53 51 39 40 43 42 44 42 42 41 37 38 37 36 37 39 40 41 42 40 36 34 31 28 29 31 33 28 25 26 26 25 23 23 24 26 29 32 33 33 34 35 37
41 42 47 47 47 43 43 42 42 47 45 45 37 37 36 36 38 38 40 41 42 39 43 38 32 30 28 29 30 29 27 25 26 24 23 23 24 25 27 31 31 33 34 35 36
40 38 42 39 42 42 44 43 41 42 46 45 41 36 36 36 37 38 41 37 39 44 38 35 30 29 27 30 29 29 28 25 25 25 25 25 24 26 25 29 30 30 32 35 37
39 36 38 37 35 42 41 43 41 42 43 41 39 35 37 37 37 37 37 37 36 34 35 34 29 26 23 27 27 29 29 28 26 26 26 26 26 27 30 32 34 34 34 36 37
41 40 36 36 32 34 36 41 41 41 42 37 38 35 36 35 36 38 37 36 37 32 30 32 26 26 25 24 22 21 23 28 28 28 27 26 28 28 33 33 33 34 35 35 36
Lifted_Index
11 10 9 9 9 8 8 8 7 7 6 5 5 4 4 4 5 6 6 6 5 3 1 1 1 1 2 2 3 4 4 5 4 4 3 4 5 5 5 4 3 2 2 2 2
11 10 9 9 9 9 8 8 7 7 6 6 5 4 4 4 5 6 6 5 5 4 2 1 0 1 1 2 3 4 4 4 4 4 4 4 4 5 4 3 2 2 2 2 2
10 10 10 10 9 9 8 8 7 7 7 6 5 4 4 5 5 6 5 4 4 4 3 1 0 0 1 2 3 3 4 4 4 4 4 4 4 4 4 3 3 2 2 2 2
10 10 10 9 9 9 9 8 7 7 7 6 5 4 4 5 5 5 5 4 4 4 3 2 1 0 1 2 2 3 3 3 3 4 4 3 4 4 4 3 3 3 3 3 2
9 9 9 9 9 9 8 8 7 7 6 5 4 4 4 4 4 4 4 4 4 4 4 2 1 0 1 1 2 3 3 3 3 4 4 3 3 4 3 3 3 4 4 4 4
9 9 9 9 9 9 8 8 7 6 5 4 4 4 4 3 3 3 4 4 4 4 4 3 1 0 0 1 1 2 3 3 3 3 4 3 3 3 3 4 4 4 4 4 4
8 8 8 8 8 8 8 7 7 5 4 4 3 3 3 3 3 3 3 4 4 4 4 2 1 0 0 0 1 2 2 2 3 3 4 4 3 3 4 5 5 5 5 5 5
8 8 8 8 8 8 8 7 6 5 4 3 3 3 3 2 2 2 2 3 4 4 3 2 1 0 0 1 1 2 2 2 2 3 4 4 3 4 6 6 6 5 5 5 5
7 7 8 8 8 8 7 6 5 4 4 4 3 3 2 1 1 1 2 3 3 3 3 2 1 0 0 1 1 2 2 3 3 3 4 4 4 5 6 6 6 5 5 5 5
7 7 7 8 8 7 6 5 5 4 4 3 3 2 1 0 0 1 2 3 2 2 2 2 0 0 0 1 1 2 3 3 3 3 4 4 4 5 6 6 5 5 5 5 5
7 7 7 8 8 7 6 5 4 4 4 3 3 2 1 0 -0 0 2 3 2 2 2 2 0 0 1 1 1 2 3 3 3 3 4 4 4 5 5 6 5 5 5 5 5
7 7 7 7 7 7 5 4 4 4 4 3 3 2 1 0 -0 0 2 2 2 2 3 2 1 0 0 1 1 2 2 3 3 3 4 4 4 4 5 6 5 5 5 5 6
7 7 7 7 7 6 5 4 4 4 4 3 3 2 1 0 -0 0 1 2 2 3 3 2 1 0 0 0 1 2 2 2 2 3 3 3 3 4 5 6 6 6 6 6 6
6 6 7 7 7 6 5 5 5 5 3 3 3 2 1 0 0 1 1 2 2 3 3 2 1 0 0 0 1 1 2 2 2 2 3 3 3 3 4 6 6 6 6 7 7
6 6 7 7 7 6 6 5 5 4 3 2 2 2 1 1 1 1 1 2 2 3 3 2 0 0 0 0 1 1 2 2 2 2 3 3 3 3 4 5 6 7 7 7 7
7 7 7 7 7 7 6 6 5 3 2 2 2 1 1 1 1 1 2 2 2 3 3 2 0 -0 0 0 1 1 2 2 2 2 2 3 3 3 4 5 6 7 7 7 8
7 7 7 7 7 7 7 6 4 3 2 2 1 1 1 1 1 2 3 3 2 3 3 1 0 0 0 0 1 1 2 1 1 1 2 3 3 4 5 5 6 7 7 7 8
7 7 8 8 7 7 6 5 3 2 2 2 1 1 1 1 2 2 3 3 3 3 3 1 1 1 1 1 1 1 1 1 1 1 2 3 3 4 5 5 5 6 7 7 7
8 8 8 8 8 7 6 4 2 2 2 2 2 1 1 2 2 3 4 3 3 3 3 2 1 1 1 1 1 1 1 1 1 2 2 3 3 4 4 4 5 5 6 7 7
7 7 7 7 7 7 5 3 2 2 2 3 3 3 3 2 3 4 4 4 3 3 3 2 2 1 1 1 1 1 1 1 2 1 1 2 3 4 4 4 4 5 6 6 6
6 6 6 7 7 6 4 3 2 2 3 3 3 3 3 3 3 4 4 3 3 3 3 2 2 2 2 1 1 2 2 1 1 1 1 2 3 4 4 4 4 4 5 5 5
5 5 5 6 5 4 3 3 3 2 2 2 2 2 2 3 3 3 3 2 2 3 3 2 2 2 2 2 2 2 2 2 2 2 2 3 3 4 4 4 4 4 5 5 4
4 4 5 5 4 3 3 3 3 2 1 1 1 2 2 2 2 2 2 2 2 2 2 2 2 2 2 2 3 3 2 2 2 3 3 3 3 4 4 4 4 4 4 4 4
3 3 4 4 3 3 3 3 3 2 1 1 1 2 2 2 1 1 1 1 1 1 2 2 2 2 2 2 3 3 2 2 2 2 2 3 3 4 4 4 4 4 4 4 4
4 3 3 3 3 2 2 2 2 2 2 2 2 2 2 2 1 1 1 1 1 1 2 2 2 2 2 2 3 3 2 1 1 2 2 3 4 4 4 4 4 4 4 5 5
5 4 3 3 2 2 2 2 2 2 2 2 2 2 2 1 1 1 1 1 1 1 2 2 2 1 1 2 2 2 2 2 2 2 3 4 4 4 4 4 4 5 5 5 5
6 5 4 3 2 2 2 2 2 3 2 2 2 2 2 1 1 1 1 1 1 1 1 1 1 1 0 0 1 2 2 2 2 2 3 4 4 4 4 4 4 5 5 6 6